Flag for India Weather past 2 weeks in Vasai-Virar, Maharashtra, India

Now
81 °F

Passing clouds.


Feels Like: 88 °F
Forecast: 76 / 87 °F
Wind: 5 mph from East

Location: Bombay / Santacruz

Current Time: Sep 22, 2014 at 6:48:29 AM

Latest Report: Sep 22, 2014 at 3:40 AM


Visibility: 2 mi

Pressure: 29.77 "Hg

Humidity: 94%

Dew point: 79 °F

Location of Vasai-VirarLocation

Historic Weather in Vasai-Virar — Graph

°F

Vasai-Virar temperature yesterday

Maximum temperature yesterday: 88 °F (at 1:10 PM)
Minimum temperature yesterday: 77 °F (at 3:40 AM)
Average temperature yesterday: 82 °F

Past Weeks' High & Low Weather Summary

 TemperatureHumidityPressure
High88 °F (Sep 7, 1:10 PM)100% (Sep 10, 2:40 PM)30.07 "Hg (Sep 10, 2:40 PM)
Low77 °F (Sep 9, 12:40 PM)62% (Sep 14, 2:10 PM)29.68 "Hg (Sep 7, 3:10 PM)
Average82 °F84%29.77 "Hg
* Reported Sep 7 6:40 AM — Sep 22 3:40 AM, Vasai-Virar, Weather by CustomWeather, © 2014

Note: Actual official high and low records may vary slightly from our data, if they occured in-between our weather recording intervals... More about our weather records

Advertising

Vasai-Virar weather history for previous 24 hours

 ConditionsComfort  
Time TempWeatherWind HumidityBarometerVisibility
3:40 AM
Sep 22
81 °FPassing clouds.5 mph94%29.77 "Hg2 mi
3:10 AM81 °FPassing clouds.3 mph94%29.77 "Hg2 mi
2:40 AM79 °FPassing clouds.5 mph100%29.77 "Hg2 mi
2:10 AM81 °FPassing clouds.No wind84%29.77 "Hg2 mi
1:40 AM81 °FPassing clouds.No wind79%29.80 "Hg2 mi
1:10 AM82 °FPassing clouds.5 mph84%29.80 "Hg2 mi
12:40 AM82 °FPassing clouds.3 mph84%29.80 "Hg2 mi
12:10 AM82 °FPassing clouds.5 mph84%29.80 "Hg2 mi
11:40 PM
Sep 21
82 °FPassing clouds.3 mph79%29.83 "Hg2 mi
11:10 PM82 °FPassing clouds.3 mph79%29.83 "Hg2 mi
10:40 PM82 °FPassing clouds.3 mph79%29.83 "Hg2 mi
10:10 PM84 °FPassing clouds.5 mph74%29.83 "Hg2 mi
9:40 PM84 °FPassing clouds.7 mph74%29.83 "Hg2 mi
9:10 PM84 °FPassing clouds.3 mph74%29.80 "Hg2 mi
8:40 PM84 °FPassing clouds.6 mph74%29.80 "Hg2 mi
8:10 PM84 °FPassing clouds.8 mph74%29.80 "Hg2 mi
7:40 PM84 °FPassing clouds.7 mph79%29.77 "Hg2 mi
7:10 PM84 °FPassing clouds.8 mph74%29.77 "Hg2 mi
6:40 PM84 °FScattered clouds.9 mph74%29.77 "Hg2 mi
5:40 PM84 °FScattered clouds.10 mph74%29.74 "Hg4 mi
4:40 PM86 °FScattered clouds.12 mph66%29.74 "Hg4 mi
3:40 PM86 °FScattered clouds.13 mph75%29.74 "Hg3 mi
1:40 PM86 °FScattered clouds.8 mph70%29.77 "Hg2 mi
1:10 PM88 °FScattered clouds.12 mph66%29.77 "Hg2 mi
12:40 PM86 °FScattered clouds.9 mph70%29.80 "Hg2 mi
12:10 PM86 °FScattered clouds.6 mph70%29.80 "Hg2 mi
11:40 AM86 °FScattered clouds.5 mph70%29.83 "Hg2 mi
11:10 AM84 °FScattered clouds.9 mph70%29.83 "Hg2 mi
10:40 AM84 °FScattered clouds.No wind79%29.83 "Hg2 mi
9:40 AM81 °FScattered clouds.3 mph89%29.83 "Hg1 mi
9:10 AM79 °FScattered showers. Scattered clouds.5 mph94%29.83 "Hg1 mi
8:40 AM79 °FScattered clouds.7 mph94%29.83 "Hg1 mi
8:10 AM77 °FBroken clouds.No wind94%29.80 "Hg1 mi
7:40 AM77 °FLight rain. Broken clouds.9 mph100%29.80 "Hg1 mi
7:10 AM77 °FBroken clouds.6 mph94%29.77 "Hg1 mi
6:40 AM77 °FPartly cloudy.6 mph94%29.77 "Hg1 mi
6:10 AM77 °FPartly cloudy.3 mph100%29.77 "Hg1 mi
Weather by CustomWeather, © 2014

See weather overviewHow to use our weather pages